Time,TemperatureF,DewpointF,PressureIn,WindDirection,WindDirectionDegrees,WindSpeedMPH,WindSpeedGustMPH,Humidity,HourlyPrecipIn,Conditions,Clouds,dailyrainin,SoftwareType,DateUTC
2013-02-05 00:03:00,43.1,38.0,29.72,NNW,328,3.0,3.0,82,0.00,CLR,,0.00,WeatherDisplay:10.37,2013-02-05 00:03:00,
2013-02-05 00:08:00,43.2,37.8,29.71,NE,38,4.6,4.6,81,0.00,CLR,,0.00,WeatherDisplay:10.37,2013-02-05 00:08:00,
2013-02-05 00:13:00,43.3,37.9,29.70,WNW,293,1.1,1.1,81,0.00,CLR,,0.00,WeatherDisplay:10.37,2013-02-05 00:13:00,
2013-02-05 00:18:00,43.3,37.9,29.70,NNE,30,3.5,3.5,81,0.00,CLR,,0.00,WeatherDisplay:10.37,2013-02-05 00:18:00,
2013-02-05 00:23:00,43.2,37.8,29.70,ESE,123,1.1,1.1,81,0.00,CLR,,0.00,WeatherDisplay:10.37,2013-02-05 00:23:00,
2013-02-05 00:28:00,43.2,37.8,29.70,NNE,18,4.6,4.6,81,0.00,CLR,,0.00,WeatherDisplay:10.37,2013-02-05 00:28:00,
2013-02-05 00:33:00,43.4,38.0,29.69,NW,324,6.9,6.9,81,0.00,CLR,,0.00,WeatherDisplay:10.37,2013-02-05 00:33:00,
2013-02-05 00:38:00,43.4,38.6,29.70,North,352,11.5,11.5,83,0.00,CLR,,0.00,WeatherDisplay:10.37,2013-02-05 00:38:00,
2013-02-05 00:43:00,43.1,39.2,29.69,WNW,293,5.8,5.8,86,0.02,RA,,0.02,WeatherDisplay:10.37,2013-02-05 00:43:00,
2013-02-05 00:48:00,42.8,39.2,29.68,WNW,294,3.5,3.5,87,0.02,RA,,0.02,WeatherDisplay:10.37,2013-02-05 00:48:00,
2013-02-05 00:53:00,42.5,39.5,29.68,NW,326,0.0,0.0,89,0.02,RA,,0.02,WeatherDisplay:10.37,2013-02-05 00:53:00,
2013-02-05 00:58:00,42.3,39.3,29.67,NW,308,3.5,3.5,89,0.02,CLR,,0.02,WeatherDisplay:10.37,2013-02-05 00:58:00,
2013-02-05 01:03:00,42.2,38.9,29.66,NE,40,3.5,3.5,88,0.02,CLR,,0.02,WeatherDisplay:10.37,2013-02-05 01:03:00,
2013-02-05 01:08:00,42.5,38.6,29.67,WSW,240,9.2,9.2,86,0.02,CLR,,0.02,WeatherDisplay:10.37,2013-02-05 01:08:00,
2013-02-05 01:13:00,42.8,38.6,29.67,WNW,284,6.9,6.9,85,0.02,CLR,,0.02,WeatherDisplay:10.37,2013-02-05 01:13:00,
2013-02-05 01:18:00,42.6,39.0,29.67,NW,308,4.6,5.2,87,0.02,CLR,,0.02,WeatherDisplay:10.37,2013-02-05 01:18:00,
2013-02-05 01:23:00,42.6,39.0,29.68,West,264,11.5,11.5,87,0.04,RA,,0.04,WeatherDisplay:10.37,2013-02-05 01:23:00,
2013-02-05 01:28:00,41.6,38.0,29.69,WSW,253,10.4,10.4,87,0.06,RA,,0.06,WeatherDisplay:10.37,2013-02-05 01:28:00,
2013-02-05 01:33:00,39.7,36.4,29.69,WNW,283,13.8,13.8,88,0.09,RA,,0.09,WeatherDisplay:10.37,2013-02-05 01:33:00,
2013-02-05 01:38:00,38.5,36.1,29.68,WNW,284,4.0,4.0,91,0.11,RA,,0.11,WeatherDisplay:10.37,2013-02-05 01:38:00,
2013-02-05 01:43:00,38.3,36.2,29.67,WNW,288,10.4,10.4,92,0.09,RA,,0.11,WeatherDisplay:10.37,2013-02-05 01:43:00,
2013-02-05 01:48:00,38.1,36.0,29.67,WNW,291,3.5,3.5,92,0.09,,,0.11,WeatherDisplay:10.37,2013-02-05 01:48:00,
2013-02-05 01:53:00,38.2,36.1,29.67,WNW,299,4.6,4.6,92,0.09,CLR,,0.11,WeatherDisplay:10.37,2013-02-05 01:53:00,
2013-02-05 01:58:00,38.4,36.3,29.67,WNW,299,3.5,3.5,92,0.09,CLR,,0.11,WeatherDisplay:10.37,2013-02-05 01:58:00,
2013-02-05 02:03:00,38.4,36.3,29.67,WNW,294,3.5,3.5,92,0.09,CLR,,0.11,WeatherDisplay:10.37,2013-02-05 02:03:00,
2013-02-05 02:08:00,38.5,36.7,29.67,North,352,3.5,3.5,93,0.09,CLR,,0.11,WeatherDisplay:10.37,2013-02-05 02:08:00,
2013-02-05 02:13:00,38.6,36.8,29.67,NNW,335,2.3,2.3,93,0.09,CLR,,0.11,WeatherDisplay:10.37,2013-02-05 02:13:00,
2013-02-05 02:18:00,38.6,36.8,29.67,NW,326,2.3,2.3,93,0.09,CLR,,0.11,WeatherDisplay:10.37,2013-02-05 02:18:00,
2013-02-05 02:23:00,38.7,36.9,29.67,SSW,197,3.5,3.5,93,0.07,CLR,,0.11,WeatherDisplay:10.37,2013-02-05 02:23:00,
2013-02-05 02:28:00,38.8,36.7,29.66,NW,311,3.5,3.5,92,0.05,CLR,,0.11,WeatherDisplay:10.37,2013-02-05 02:28:00,
2013-02-05 02:33:00,38.7,36.6,29.66,ENE,59,1.1,1.8,92,0.02,CLR,,0.11,WeatherDisplay:10.37,2013-02-05 02:33:00,
2013-02-05 02:38:00,38.6,36.5,29.66,WNW,300,8.1,8.1,92,0.00,CLR,,0.11,WeatherDisplay:10.37,2013-02-05 02:38:00,
2013-02-05 02:43:00,38.5,36.1,29.66,ENE,74,3.5,3.5,91,0.00,CLR,,0.11,WeatherDisplay:10.37,2013-02-05 02:43:00,
2013-02-05 02:48:00,38.4,36.0,29.66,West,267,3.5,3.5,91,0.00,CLR,,0.11,WeatherDisplay:10.37,2013-02-05 02:48:00,
2013-02-05 02:53:00,38.4,36.0,29.65,ENE,78,2.3,2.3,91,0.00,CLR,,0.11,WeatherDisplay:10.37,2013-02-05 02:53:00,
2013-02-05 02:58:00,38.3,35.6,29.64,WSW,256,8.1,8.1,90,0.00,CLR,,0.11,WeatherDisplay:10.37,2013-02-05 02:58:00,
2013-02-05 03:03:00,38.1,35.7,29.65,NW,321,2.3,2.3,91,0.00,CLR,,0.11,WeatherDisplay:10.37,2013-02-05 03:03:00,
2013-02-05 03:08:00,37.9,35.5,29.64,West,276,2.3,2.3,91,0.00,CLR,,0.11,WeatherDisplay:10.37,2013-02-05 03:08:00,
2013-02-05 03:13:00,37.7,35.6,29.64,NNW,335,2.3,2.3,92,0.00,CLR,,0.11,WeatherDisplay:10.37,2013-02-05 03:13:00,
2013-02-05 03:18:00,37.6,35.5,29.64,WNW,282,1.1,1.1,92,0.00,CLR,,0.11,WeatherDisplay:10.37,2013-02-05 03:18:00,
2013-02-05 03:23:00,37.7,35.9,29.64,NW,319,3.5,3.5,93,0.00,CLR,,0.11,WeatherDisplay:10.37,2013-02-05 03:23:00,
2013-02-05 03:28:00,37.7,35.9,29.64,NE,36,1.0,1.0,93,0.00,CLR,,0.11,WeatherDisplay:10.37,2013-02-05 03:28:00,
2013-02-05 03:33:00,37.7,35.9,29.63,NW,326,1.1,1.1,93,0.00,CLR,,0.11,WeatherDisplay:10.37,2013-02-05 03:33:00,
2013-02-05 03:38:00,37.9,36.1,29.62,NW,305,2.3,2.3,93,0.00,CLR,,0.11,WeatherDisplay:10.37,2013-02-05 03:38:00,
2013-02-05 03:43:00,38.1,36.0,29.62,WNW,297,1.1,1.1,92,0.00,CLR,,0.11,WeatherDisplay:10.37,2013-02-05 03:43:00,
2013-02-05 03:48:00,38.2,36.1,29.62,NW,315,3.5,3.5,92,0.00,CLR,,0.11,WeatherDisplay:10.37,2013-02-05 03:48:00,
2013-02-05 03:53:00,38.1,35.7,29.62,NW,319,3.5,3.5,91,0.00,CLR,,0.11,WeatherDisplay:10.37,2013-02-05 03:53:00,
2013-02-05 03:58:00,38.0,35.6,29.62,West,279,2.3,2.3,91,0.00,CLR,,0.11,WeatherDisplay:10.37,2013-02-05 03:58:00,
2013-02-05 04:03:00,38.0,35.6,29.62,West,273,2.3,2.3,91,0.00,CLR,,0.11,WeatherDisplay:10.37,2013-02-05 04:03:00,
2013-02-05 04:08:00,37.9,35.5,29.62,WNW,293,3.5,3.5,91,0.00,CLR,,0.11,WeatherDisplay:10.37,2013-02-05 04:08:00,
2013-02-05 04:13:00,37.8,35.4,29.62,West,276,3.5,3.5,91,0.00,CLR,,0.11,WeatherDisplay:10.37,2013-02-05 04:13:00,
2013-02-05 04:18:00,37.7,35.3,29.62,NE,41,2.3,2.3,91,0.00,CLR,,0.11,WeatherDisplay:10.37,2013-02-05 04:18:00,
2013-02-05 04:23:00,37.7,35.0,29.62,WNW,287,3.5,3.5,90,0.00,CLR,,0.11,WeatherDisplay:10.37,2013-02-05 04:23:00,
2013-02-05 04:28:00,37.8,34.8,29.62,NW,323,5.8,5.8,89,0.00,CLR,,0.11,WeatherDisplay:10.37,2013-02-05 04:28:00,
2013-02-05 04:33:00,37.7,34.8,29.62,SW,231,3.5,3.5,89,0.00,CLR,,0.11,WeatherDisplay:10.37,2013-02-05 04:33:00,
2013-02-05 04:38:00,37.6,34.4,29.62,WNW,282,3.5,3.5,88,0.00,CLR,,0.11,WeatherDisplay:10.37,2013-02-05 04:38:00,
2013-02-05 04:43:00,37.7,33.9,29.61,North,3,5.8,5.8,86,0.00,CLR,,0.11,WeatherDisplay:10.37,2013-02-05 04:43:00,
2013-02-05 04:48:00,37.7,33.6,29.62,NW,311,4.6,4.6,85,0.00,CLR,,0.11,WeatherDisplay:10.37,2013-02-05 04:48:00,
2013-02-05 04:53:00,37.6,33.5,29.62,NW,305,3.5,3.5,85,0.00,CLR,,0.11,WeatherDisplay:10.37,2013-02-05 04:53:00,
2013-02-05 04:58:00,37.5,33.1,29.62,NNE,13,3.5,3.5,84,0.00,CLR,,0.11,WeatherDisplay:10.37,2013-02-05 04:58:00,
2013-02-05 05:00:00,37.5,33.1,29.61,NNW,342,3.5,3.5,84,0.00,CLR,,0.11,WeatherDisplay:10.37,2013-02-05 05:00:00,
2013-02-05 05:05:00,37.2,33.1,29.62,NNE,16,1.1,1.1,85,0.00,CLR,,0.11,WeatherDisplay:10.37,2013-02-05 05:05:00,
2013-02-05 05:10:00,36.9,33.4,29.62,WNW,299,1.1,1.1,87,0.00,CLR,,0.11,WeatherDisplay:10.37,2013-02-05 05:10:00,
2013-02-05 05:15:00,36.7,33.5,29.62,NW,324,1.1,1.1,88,0.00,CLR,,0.11,WeatherDisplay:10.37,2013-02-05 05:15:00,
2013-02-05 05:20:00,36.5,33.3,29.62,NNW,332,3.5,3.5,88,0.00,CLR,,0.11,WeatherDisplay:10.37,2013-02-05 05:20:00,
2013-02-05 05:25:00,36.5,33.0,29.62,East,79,3.5,3.5,87,0.00,CLR,,0.11,WeatherDisplay:10.37,2013-02-05 05:25:00,
2013-02-05 05:30:00,36.5,32.4,29.62,NW,309,3.5,3.5,85,0.00,CLR,,0.11,WeatherDisplay:10.37,2013-02-05 05:30:00,
2013-02-05 05:35:00,36.7,32.3,29.62,WNW,295,3.5,3.5,84,0.00,CLR,,0.11,WeatherDisplay:10.37,2013-02-05 05:35:00,
2013-02-05 05:40:00,36.7,32.0,29.62,NW,312,3.5,3.5,83,0.00,CLR,,0.11,WeatherDisplay:10.37,2013-02-05 05:40:00,
2013-02-05 05:45:00,36.7,32.0,29.62,West,280,2.3,2.3,83,0.00,CLR,,0.11,WeatherDisplay:10.37,2013-02-05 05:45:00,
2013-02-05 05:50:00,36.5,31.8,29.62,WSW,242,3.5,3.5,83,0.00,CLR,,0.11,WeatherDisplay:10.37,2013-02-05 05:50:00,
2013-02-05 05:55:00,36.4,31.4,29.61,WNW,302,3.5,3.5,82,0.00,CLR,,0.11,WeatherDisplay:10.37,2013-02-05 05:55:00,
2013-02-05 06:00:00,36.4,31.4,29.61,NW,314,4.0,4.0,82,0.00,CLR,,0.11,WeatherDisplay:10.37,2013-02-05 06:00:00,
2013-02-05 06:05:00,36.4,31.1,29.61,NW,314,3.5,3.5,81,0.00,CLR,,0.11,WeatherDisplay:10.37,2013-02-05 06:05:00,
2013-02-05 06:10:00,36.5,31.2,29.61,NNW,345,4.6,4.6,81,0.00,CLR,,0.11,WeatherDisplay:10.37,2013-02-05 06:10:00,
2013-02-05 06:15:00,36.4,30.8,29.61,WNW,293,3.5,3.5,80,0.00,CLR,,0.11,WeatherDisplay:10.37,2013-02-05 06:15:00,
2013-02-05 06:20:00,36.3,31.0,29.60,WNW,293,3.5,3.5,81,0.00,CLR,,0.11,WeatherDisplay:10.37,2013-02-05 06:20:00,
2013-02-05 06:25:00,36.2,30.9,29.60,North,8,2.3,2.3,81,0.00,CLR,,0.11,WeatherDisplay:10.37,2013-02-05 06:25:00,
2013-02-05 06:30:00,36.1,30.8,29.60,NNW,335,3.5,3.5,81,0.00,CLR,,0.11,WeatherDisplay:10.37,2013-02-05 06:30:00,
2013-02-05 06:35:00,36.0,30.7,29.60,ESE,120,3.5,3.5,81,0.00,CLR,,0.11,WeatherDisplay:10.37,2013-02-05 06:35:00,
2013-02-05 06:40:00,35.9,30.6,29.60,West,264,3.5,3.5,81,0.00,CLR,,0.11,WeatherDisplay:10.37,2013-02-05 06:40:00,
2013-02-05 06:45:00,35.9,30.6,29.60,West,270,1.1,1.1,81,0.00,CLR,,0.11,WeatherDisplay:10.37,2013-02-05 06:45:00,
2013-02-05 06:50:00,35.8,30.5,29.60,WNW,299,0.0,0.0,81,0.00,CLR,,0.11,WeatherDisplay:10.37,2013-02-05 06:50:00,
2013-02-05 06:55:00,35.8,30.5,29.61,North,7,4.6,4.6,81,0.00,CLR,,0.11,WeatherDisplay:10.37,2013-02-05 06:55:00,
2013-02-05 07:00:00,35.8,30.5,29.60,NNW,330,3.5,3.5,81,0.00,CLR,,0.11,WeatherDisplay:10.37,2013-02-05 07:00:00,
2013-02-05 07:05:00,35.8,30.5,29.60,WNW,283,1.1,1.1,81,0.00,CLR,,0.11,WeatherDisplay:10.37,2013-02-05 07:05:00,
2013-02-05 07:10:00,35.6,30.6,29.60,NW,307,2.3,2.3,82,0.00,CLR,,0.11,WeatherDisplay:10.37,2013-02-05 07:10:00,
2013-02-05 07:15:00,35.6,30.3,29.60,NNW,331,3.5,3.5,81,0.00,CLR,,0.11,WeatherDisplay:10.37,2013-02-05 07:15:00,
2013-02-05 07:20:00,35.6,30.3,29.60,SW,221,3.5,3.5,81,0.00,CLR,,0.11,WeatherDisplay:10.37,2013-02-05 07:20:00,
2013-02-05 07:25:00,35.6,30.3,29.60,NW,305,3.5,3.5,81,0.00,CLR,,0.11,WeatherDisplay:10.37,2013-02-05 07:25:00,
2013-02-05 07:30:00,35.6,30.3,29.60,NW,320,4.6,4.6,81,0.00,CLR,,0.11,WeatherDisplay:10.37,2013-02-05 07:30:00,
2013-02-05 07:35:00,35.7,30.4,29.60,NW,316,3.5,3.5,81,0.00,CLR,,0.11,WeatherDisplay:10.37,2013-02-05 07:35:00,
2013-02-05 07:40:00,35.8,30.2,29.60,North,356,3.5,3.5,80,0.00,CLR,,0.11,WeatherDisplay:10.37,2013-02-05 07:40:00,
2013-02-05 07:45:00,35.9,30.3,29.60,SW,222,3.5,3.5,80,0.00,CLR,,0.11,WeatherDisplay:10.37,2013-02-05 07:45:00,
2013-02-05 07:50:00,35.9,30.3,29.60,WNW,285,1.1,1.1,80,0.00,CLR,,0.11,WeatherDisplay:10.37,2013-02-05 07:50:00,
2013-02-05 07:55:00,35.9,30.3,29.60,SSW,205,4.0,4.0,80,0.00,CLR,,0.11,WeatherDisplay:10.37,2013-02-05 07:55:00,
2013-02-05 08:00:00,36.0,30.4,29.60,ENE,58,3.5,3.5,80,0.00,CLR,,0.11,WeatherDisplay:10.37,2013-02-05 08:00:00,
2013-02-05 08:05:00,36.1,30.5,29.59,North,11,3.5,3.5,80,0.00,CLR,,0.11,WeatherDisplay:10.37,2013-02-05 08:05:00,
2013-02-05 08:10:00,36.2,30.6,29.59,West,264,2.3,2.3,80,0.00,CLR,,0.11,WeatherDisplay:10.37,2013-02-05 08:10:00,
2013-02-05 08:15:00,36.3,30.7,29.59,NW,309,2.3,2.3,80,0.00,CLR,,0.11,WeatherDisplay:10.37,2013-02-05 08:15:00,
2013-02-05 08:20:00,36.3,30.7,29.59,WNW,302,3.5,3.5,80,0.00,CLR,,0.11,WeatherDisplay:10.37,2013-02-05 08:20:00,
2013-02-05 08:25:00,36.4,30.8,29.59,ESE,105,0.0,0.0,80,0.00,CLR,,0.11,WeatherDisplay:10.37,2013-02-05 08:25:00,
2013-02-05 08:30:00,36.5,30.9,29.59,WNW,302,1.1,1.1,80,0.00,CLR,,0.11,WeatherDisplay:10.37,2013-02-05 08:30:00,
2013-02-05 08:35:00,36.6,31.0,29.59,North,350,1.1,1.1,80,0.00,CLR,,0.11,WeatherDisplay:10.37,2013-02-05 08:35:00,
2013-02-05 08:40:00,36.7,31.1,29.59,West,262,1.1,1.1,80,0.00,CLR,,0.11,WeatherDisplay:10.37,2013-02-05 08:40:00,
2013-02-05 08:45:00,36.9,31.3,29.59,South,173,2.3,2.3,80,0.00,CLR,,0.11,WeatherDisplay:10.37,2013-02-05 08:45:00,
2013-02-05 08:50:00,37.1,31.2,29.59,NNW,332,3.5,3.5,79,0.00,CLR,,0.11,WeatherDisplay:10.37,2013-02-05 08:50:00,
2013-02-05 08:55:00,37.3,31.7,29.58,NNE,15,2.3,2.3,80,0.00,CLR,,0.11,WeatherDisplay:10.37,2013-02-05 08:55:00,
2013-02-05 09:00:00,37.8,31.9,29.58,North,354,4.0,4.0,79,0.00,CLR,,0.11,WeatherDisplay:10.37,2013-02-05 09:00:00,
2013-02-05 09:05:00,38.0,31.7,29.58,NNW,333,4.6,4.6,78,0.00,CLR,,0.11,WeatherDisplay:10.37,2013-02-05 09:05:00,
2013-02-05 09:10:00,37.9,31.7,29.58,NW,320,2.3,2.3,78,0.00,CLR,,0.11,WeatherDisplay:10.37,2013-02-05 09:10:00,
2013-02-05 09:15:00,38.0,31.7,29.58,NW,310,3.5,3.5,78,0.00,CLR,,0.11,WeatherDisplay:10.37,2013-02-05 09:15:00,
2013-02-05 09:20:00,38.3,32.0,29.57,NW,314,5.8,5.8,78,0.00,CLR,,0.11,WeatherDisplay:10.37,2013-02-05 09:20:00,
2013-02-05 09:25:00,38.6,32.3,29.57,WSW,238,2.3,2.3,78,0.00,CLR,,0.11,WeatherDisplay:10.37,2013-02-05 09:25:00,
2013-02-05 09:30:00,38.8,32.5,29.57,South,172,2.3,2.3,78,0.00,CLR,,0.11,WeatherDisplay:10.37,2013-02-05 09:30:00,
2013-02-05 09:35:00,39.1,32.8,29.57,NNW,333,3.5,3.5,78,0.00,CLR,,0.11,WeatherDisplay:10.37,2013-02-05 09:35:00,
2013-02-05 09:40:00,39.3,32.7,29.57,North,349,3.5,3.5,77,0.00,CLR,,0.11,WeatherDisplay:10.37,2013-02-05 09:40:00,
2013-02-05 09:45:00,39.5,32.6,29.56,SW,235,2.3,2.3,76,0.00,CLR,,0.11,WeatherDisplay:10.37,2013-02-05 09:45:00,
2013-02-05 09:50:00,39.6,32.7,29.57,WNW,302,4.0,4.0,76,0.00,CLR,,0.11,WeatherDisplay:10.37,2013-02-05 09:50:00,
2013-02-05 09:55:00,39.7,32.8,29.57,North,11,3.5,3.5,76,0.00,CLR,,0.11,WeatherDisplay:10.37,2013-02-05 09:55:00,
2013-02-05 10:00:00,39.9,32.9,29.57,NW,316,3.5,3.5,76,0.00,CLR,,0.11,WeatherDisplay:10.37,2013-02-05 10:00:00,
2013-02-05 10:05:00,40.0,33.0,29.57,SE,145,2.3,2.3,76,0.00,CLR,,0.11,WeatherDisplay:10.37,2013-02-05 10:05:00,
2013-02-05 10:10:00,40.1,32.5,29.57,WNW,282,6.9,6.9,74,0.00,CLR,,0.11,WeatherDisplay:10.37,2013-02-05 10:10:00,
2013-02-05 10:15:00,39.9,32.3,29.57,NNW,342,3.5,3.5,74,0.00,CLR,,0.11,WeatherDisplay:10.37,2013-02-05 10:15:00,
2013-02-05 10:20:00,39.7,31.8,29.57,NNW,344,8.1,8.1,73,0.00,CLR,,0.11,WeatherDisplay:10.37,2013-02-05 10:20:00,
2013-02-05 10:25:00,39.8,32.2,29.57,NW,316,9.2,9.2,74,0.00,CLR,,0.11,WeatherDisplay:10.37,2013-02-05 10:25:00,
2013-02-05 10:30:00,39.9,31.3,29.57,NW,318,11.5,11.5,71,0.00,CLR,,0.11,WeatherDisplay:10.37,2013-02-05 10:30:00,
2013-02-05 10:35:00,40.0,31.7,29.56,West,266,9.0,9.0,72,0.00,CLR,,0.11,WeatherDisplay:10.37,2013-02-05 10:35:00,
2013-02-05 10:40:00,40.1,31.4,29.56,North,350,6.9,6.9,71,0.00,CLR,,0.11,WeatherDisplay:10.37,2013-02-05 10:40:00,
2013-02-05 10:45:00,40.2,31.5,29.56,NW,308,3.5,3.5,71,0.00,CLR,,0.11,WeatherDisplay:10.37,2013-02-05 10:45:00,
2013-02-05 10:50:00,40.2,31.2,29.56,WNW,288,10.4,10.4,70,0.00,CLR,,0.11,WeatherDisplay:10.37,2013-02-05 10:50:00,
2013-02-05 10:55:00,40.2,30.5,29.55,WNW,300,10.4,10.4,68,0.00,CLR,,0.11,WeatherDisplay:10.37,2013-02-05 10:55:00,
2013-02-05 11:00:00,40.2,30.5,29.55,NNW,335,5.0,5.0,68,0.00,CLR,,0.11,WeatherDisplay:10.37,2013-02-05 11:00:00,
2013-02-05 11:05:00,40.4,30.7,29.55,NW,326,3.5,3.5,68,0.00,CLR,,0.11,WeatherDisplay:10.37,2013-02-05 11:05:00,
2013-02-05 11:10:00,40.5,30.8,29.55,West,277,5.8,5.8,68,0.00,CLR,,0.11,WeatherDisplay:10.37,2013-02-05 11:10:00,
2013-02-05 11:15:00,40.3,30.6,29.55,NNW,340,6.9,6.9,68,0.00,CLR,,0.11,WeatherDisplay:10.37,2013-02-05 11:15:00,
2013-02-05 11:20:00,40.2,30.5,29.54,SE,138,6.9,6.9,68,0.00,CLR,,0.11,WeatherDisplay:10.37,2013-02-05 11:20:00,
2013-02-05 11:25:00,40.3,30.2,29.54,West,276,4.6,4.6,67,0.00,CLR,,0.11,WeatherDisplay:10.37,2013-02-05 11:25:00,
2013-02-05 11:30:00,40.5,30.4,29.54,WNW,302,6.0,6.0,67,0.00,CLR,,0.11,WeatherDisplay:10.37,2013-02-05 11:30:00,
2013-02-05 11:35:00,40.4,29.9,29.54,WNW,302,6.9,6.9,66,0.00,CLR,,0.11,WeatherDisplay:10.37,2013-02-05 11:35:00,
2013-02-05 11:40:00,40.4,29.6,29.54,NW,326,11.5,11.5,65,0.00,CLR,,0.11,WeatherDisplay:10.37,2013-02-05 11:40:00,
2013-02-05 11:45:00,40.7,30.2,29.54,NE,46,4.6,4.6,66,0.00,CLR,,0.11,WeatherDisplay:10.37,2013-02-05 11:45:00,
2013-02-05 11:50:00,41.2,29.9,29.54,North,359,5.8,5.8,64,0.00,CLR,,0.11,WeatherDisplay:10.37,2013-02-05 11:50:00,
2013-02-05 11:55:00,41.2,30.3,29.53,WNW,293,5.0,5.0,65,0.00,CLR,,0.11,WeatherDisplay:10.37,2013-02-05 11:55:00,
2013-02-05 12:00:00,41.3,29.6,29.54,WNW,293,10.4,10.4,63,0.00,CLR,,0.11,WeatherDisplay:10.37,2013-02-05 12:00:00,
2013-02-05 12:05:00,41.5,30.2,29.54,West,280,5.8,5.8,64,0.00,CLR,,0.11,WeatherDisplay:10.37,2013-02-05 12:05:00,
2013-02-05 12:10:00,41.4,30.1,29.53,WNW,299,5.8,5.8,64,0.00,CLR,,0.11,WeatherDisplay:10.37,2013-02-05 12:10:00,
2013-02-05 12:15:00,41.3,29.6,29.54,WNW,291,15.0,15.0,63,0.00,CLR,,0.11,WeatherDisplay:10.37,2013-02-05 12:15:00,
2013-02-05 12:20:00,41.4,29.7,29.53,WNW,300,9.2,9.2,63,0.00,CLR,,0.11,WeatherDisplay:10.37,2013-02-05 12:20:00,
2013-02-05 12:25:00,41.6,30.7,29.53,West,277,7.0,7.0,65,0.00,CLR,,0.11,WeatherDisplay:10.37,2013-02-05 12:25:00,
2013-02-05 12:30:00,41.5,29.4,29.53,West,278,8.1,8.1,62,0.00,CLR,,0.11,WeatherDisplay:10.37,2013-02-05 12:30:00,
2013-02-05 12:35:00,41.7,29.6,29.53,West,280,6.9,6.9,62,0.00,CLR,,0.11,WeatherDisplay:10.37,2013-02-05 12:35:00,
2013-02-05 12:40:00,41.9,29.4,29.52,NW,314,5.8,5.8,61,0.00,CLR,,0.11,WeatherDisplay:10.37,2013-02-05 12:40:00,
2013-02-05 12:45:00,42.1,29.2,29.52,WNW,284,9.2,9.2,60,0.00,CLR,,0.11,WeatherDisplay:10.37,2013-02-05 12:45:00,
2013-02-05 12:50:00,42.1,28.8,29.52,WNW,287,9.2,9.2,59,0.00,CLR,,0.11,WeatherDisplay:10.37,2013-02-05 12:50:00,
2013-02-05 12:55:00,42.0,29.1,29.52,West,262,8.1,8.1,60,0.00,CLR,,0.11,WeatherDisplay:10.37,2013-02-05 12:55:00,
2013-02-05 13:00:00,42.0,29.1,29.52,NNW,337,10.4,10.4,60,0.00,CLR,,0.11,WeatherDisplay:10.37,2013-02-05 13:00:00,
2013-02-05 13:05:00,41.8,28.9,29.52,NNE,27,6.9,6.9,60,0.00,CLR,,0.11,WeatherDisplay:10.37,2013-02-05 13:05:00,
2013-02-05 13:10:00,42.2,29.7,29.52,WNW,293,6.9,6.9,61,0.00,CLR,,0.11,WeatherDisplay:10.37,2013-02-05 13:10:00,
2013-02-05 13:15:00,42.6,29.3,29.51,WNW,284,8.1,8.1,59,0.00,CLR,,0.11,WeatherDisplay:10.37,2013-02-05 13:15:00,
2013-02-05 13:20:00,42.7,28.5,29.52,NW,304,6.9,6.9,57,0.00,CLR,,0.11,WeatherDisplay:10.37,2013-02-05 13:20:00,
2013-02-05 13:25:00,42.8,28.6,29.51,West,277,10.4,10.4,57,0.00,CLR,,0.11,WeatherDisplay:10.37,2013-02-05 13:25:00,
2013-02-05 13:30:00,42.7,28.5,29.51,West,281,6.9,6.9,57,0.00,CLR,,0.11,WeatherDisplay:10.37,2013-02-05 13:30:00,
2013-02-05 13:35:00,42.3,28.6,29.51,NNW,335,12.0,12.0,58,0.00,CLR,,0.11,WeatherDisplay:10.37,2013-02-05 13:35:00,
2013-02-05 13:40:00,41.9,28.2,29.51,NNE,26,4.6,4.6,58,0.00,CLR,,0.11,WeatherDisplay:10.37,2013-02-05 13:40:00,
2013-02-05 13:45:00,41.9,27.8,29.51,NW,311,9.2,9.2,57,0.00,CLR,,0.11,WeatherDisplay:10.37,2013-02-05 13:45:00,
2013-02-05 13:50:00,42.2,28.5,29.50,SSW,208,8.1,8.1,58,0.00,CLR,,0.11,WeatherDisplay:10.37,2013-02-05 13:50:00,
2013-02-05 13:55:00,42.5,28.8,29.50,West,275,3.5,3.5,58,0.00,CLR,,0.11,WeatherDisplay:10.37,2013-02-05 13:55:00,
2013-02-05 14:00:00,42.5,28.3,29.50,West,274,4.6,4.6,57,0.00,CLR,,0.11,WeatherDisplay:10.37,2013-02-05 14:00:00,
2013-02-05 14:05:00,42.5,28.8,29.49,NW,307,6.9,6.9,58,0.00,CLR,,0.11,WeatherDisplay:10.37,2013-02-05 14:05:00,
2013-02-05 14:10:00,42.8,28.6,29.49,NW,307,3.5,3.5,57,0.00,CLR,,0.11,WeatherDisplay:10.37,2013-02-05 14:10:00,
2013-02-05 14:15:00,42.9,28.7,29.49,WNW,288,8.1,8.1,57,0.00,CLR,,0.11,WeatherDisplay:10.37,2013-02-05 14:15:00,
2013-02-05 14:20:00,43.0,28.4,29.49,NW,309,5.8,5.8,56,0.00,CLR,,0.11,WeatherDisplay:10.37,2013-02-05 14:20:00,
2013-02-05 14:25:00,42.9,27.8,29.49,NNW,338,8.1,8.1,55,0.00,CLR,,0.11,WeatherDisplay:10.37,2013-02-05 14:25:00,
2013-02-05 14:30:00,42.9,28.7,29.49,NNE,32,6.9,6.9,57,0.00,CLR,,0.11,WeatherDisplay:10.37,2013-02-05 14:30:00,
2013-02-05 14:35:00,42.8,28.2,29.49,West,276,8.1,8.1,56,0.00,CLR,,0.11,WeatherDisplay:10.37,2013-02-05 14:35:00,
2013-02-05 14:40:00,42.8,28.6,29.48,West,270,6.9,6.9,57,0.00,CLR,,0.11,WeatherDisplay:10.37,2013-02-05 14:40:00,
2013-02-05 14:45:00,42.7,28.5,29.48,WSW,242,5.8,5.8,57,0.00,CLR,,0.11,WeatherDisplay:10.37,2013-02-05 14:45:00,
2013-02-05 14:50:00,42.7,28.9,29.48,NNE,33,4.0,4.0,58,0.00,CLR,,0.11,WeatherDisplay:10.37,2013-02-05 14:50:00,
2013-02-05 14:55:00,42.5,28.3,29.48,NNW,329,5.0,5.0,57,0.00,CLR,,0.11,WeatherDisplay:10.37,2013-02-05 14:55:00,
2013-02-05 15:00:00,42.5,27.9,29.47,WNW,303,5.8,5.8,56,0.00,CLR,,0.11,WeatherDisplay:10.37,2013-02-05 15:00:00,
2013-02-05 15:05:00,42.6,28.4,29.47,NW,319,6.9,6.9,57,0.00,CLR,,0.11,WeatherDisplay:10.37,2013-02-05 15:05:00,
2013-02-05 15:10:00,42.4,28.2,29.47,West,276,8.1,8.1,57,0.00,CLR,,0.11,WeatherDisplay:10.37,2013-02-05 15:10:00,
2013-02-05 15:15:00,42.3,28.6,29.47,WNW,302,5.8,5.8,58,0.00,CLR,,0.11,WeatherDisplay:10.37,2013-02-05 15:15:00,
2013-02-05 15:20:00,42.2,28.9,29.46,East,82,2.3,2.3,59,0.00,CLR,,0.11,WeatherDisplay:10.37,2013-02-05 15:20:00,
2013-02-05 15:25:00,42.4,29.1,29.46,SW,228,2.0,2.0,59,0.00,CLR,,0.11,WeatherDisplay:10.37,2013-02-05 15:25:00,
2013-02-05 15:30:00,42.4,29.1,29.46,NNW,337,3.5,3.5,59,0.00,CLR,,0.11,WeatherDisplay:10.37,2013-02-05 15:30:00,
2013-02-05 15:35:00,42.3,29.0,29.45,NNW,331,6.9,6.9,59,0.00,CLR,,0.11,WeatherDisplay:10.37,2013-02-05 15:35:00,
2013-02-05 15:40:00,42.2,28.9,29.46,West,266,4.6,4.6,59,0.00,CLR,,0.11,WeatherDisplay:10.37,2013-02-05 15:40:00,
2013-02-05 15:45:00,42.1,28.8,29.46,NW,324,6.0,6.0,59,0.00,CLR,,0.11,WeatherDisplay:10.37,2013-02-05 15:45:00,
2013-02-05 15:50:00,41.9,28.6,29.45,ESE,119,3.5,3.5,59,0.00,CLR,,0.11,WeatherDisplay:10.37,2013-02-05 15:50:00,
2013-02-05 15:55:00,41.7,28.4,29.45,NNW,328,3.5,3.5,59,0.00,CLR,,0.11,WeatherDisplay:10.37,2013-02-05 15:55:00,
2013-02-05 16:00:00,41.6,28.7,29.45,WNW,283,3.5,3.5,60,0.00,CLR,,0.11,WeatherDisplay:10.37,2013-02-05 16:00:00,
2013-02-05 16:05:00,41.5,28.6,29.44,WNW,289,3.5,3.5,60,0.00,CLR,,0.11,WeatherDisplay:10.37,2013-02-05 16:05:00,
2013-02-05 16:10:00,41.4,28.9,29.44,NW,304,3.5,3.5,61,0.00,CLR,,0.11,WeatherDisplay:10.37,2013-02-05 16:10:00,
2013-02-05 16:15:00,41.3,28.9,29.44,WSW,245,5.8,5.8,61,0.00,CLR,,0.11,WeatherDisplay:10.37,2013-02-05 16:15:00,
2013-02-05 16:20:00,41.3,29.3,29.44,WNW,300,2.3,2.3,62,0.00,CLR,,0.11,WeatherDisplay:10.37,2013-02-05 16:20:00,
2013-02-05 16:25:00,41.2,29.2,29.43,East,101,3.5,3.5,62,0.00,CLR,,0.11,WeatherDisplay:10.37,2013-02-05 16:25:00,
2013-02-05 16:30:00,41.2,29.2,29.44,WSW,242,3.5,3.5,62,0.00,CLR,,0.11,WeatherDisplay:10.37,2013-02-05 16:30:00,
2013-02-05 16:35:00,41.2,29.2,29.44,ENE,64,4.0,4.0,62,0.00,CLR,,0.11,WeatherDisplay:10.37,2013-02-05 16:35:00,
2013-02-05 16:40:00,41.2,29.5,29.44,SW,235,10.0,10.0,63,0.00,CLR,,0.11,WeatherDisplay:10.37,2013-02-05 16:40:00,
2013-02-05 16:45:00,41.2,29.5,29.44,NW,326,5.8,5.8,63,0.00,CLR,,0.11,WeatherDisplay:10.37,2013-02-05 16:45:00,
2013-02-05 16:50:00,41.2,29.5,29.43,WSW,249,3.5,3.5,63,0.00,CLR,,0.11,WeatherDisplay:10.37,2013-02-05 16:50:00,
2013-02-05 16:55:00,41.2,29.9,29.44,WNW,289,2.3,2.3,64,0.00,CLR,,0.11,WeatherDisplay:10.37,2013-02-05 16:55:00,
2013-02-05 17:00:00,41.1,30.2,29.43,East,83,3.5,3.5,65,0.00,CLR,,0.11,WeatherDisplay:10.37,2013-02-05 17:00:00,
2013-02-05 17:05:00,40.7,30.6,29.43,NNW,332,4.6,4.6,67,0.00,CLR,,0.11,WeatherDisplay:10.37,2013-02-05 17:05:00,
2013-02-05 17:10:00,40.6,31.2,29.42,WNW,300,2.3,2.3,69,0.00,CLR,,0.11,WeatherDisplay:10.37,2013-02-05 17:10:00,
2013-02-05 17:15:00,40.5,30.4,29.42,NW,314,3.5,3.5,67,0.00,CLR,,0.11,WeatherDisplay:10.37,2013-02-05 17:15:00,
2013-02-05 17:20:00,40.5,30.4,29.42,NNW,345,3.5,3.5,67,0.00,CLR,,0.11,WeatherDisplay:10.37,2013-02-05 17:20:00,
2013-02-05 17:25:00,40.5,30.4,29.41,NW,324,3.5,3.5,67,0.00,CLR,,0.11,WeatherDisplay:10.37,2013-02-05 17:25:00,
2013-02-05 17:30:00,40.6,30.5,29.41,NW,304,3.5,3.5,67,0.00,CLR,,0.11,WeatherDisplay:10.37,2013-02-05 17:30:00,
2013-02-05 17:35:00,40.6,30.9,29.41,East,79,2.3,2.3,68,0.00,CLR,,0.11,WeatherDisplay:10.37,2013-02-05 17:35:00,
2013-02-05 17:40:00,40.6,30.9,29.41,NE,38,2.3,2.3,68,0.00,CLR,,0.11,WeatherDisplay:10.37,2013-02-05 17:40:00,
2013-02-05 17:45:00,40.6,30.9,29.41,NW,304,2.3,2.3,68,0.00,CLR,,0.11,WeatherDisplay:10.37,2013-02-05 17:45:00,
2013-02-05 17:50:00,40.7,31.3,29.41,NNE,17,2.3,2.3,69,0.00,CLR,,0.11,WeatherDisplay:10.37,2013-02-05 17:50:00,
2013-02-05 17:55:00,40.8,31.8,29.40,East,79,3.5,3.5,70,0.00,CLR,,0.11,WeatherDisplay:10.37,2013-02-05 17:55:00,
2013-02-05 18:00:00,40.9,31.9,29.40,ENE,62,3.5,3.5,70,0.00,CLR,,0.11,WeatherDisplay:10.37,2013-02-05 18:00:00,
2013-02-05 18:05:00,40.9,32.2,29.39,ENE,68,3.5,3.5,71,0.00,CLR,,0.11,WeatherDisplay:10.37,2013-02-05 18:05:00,
2013-02-05 18:10:00,41.0,32.7,29.39,SW,233,3.5,3.5,72,0.00,CLR,,0.11,WeatherDisplay:10.37,2013-02-05 18:10:00,
2013-02-05 18:15:00,41.0,33.0,29.39,NW,308,3.5,3.5,73,0.00,CLR,,0.11,WeatherDisplay:10.37,2013-02-05 18:15:00,
2013-02-05 18:20:00,40.9,33.9,29.39,East,93,5.8,5.8,76,0.00,CLR,,0.11,WeatherDisplay:10.37,2013-02-05 18:20:00,
2013-02-05 18:25:00,40.7,34.7,29.38,NNW,337,2.0,2.0,79,0.00,CLR,,0.11,WeatherDisplay:10.37,2013-02-05 18:25:00,
2013-02-05 18:30:00,40.4,34.7,29.38,NNW,342,3.5,3.5,80,0.00,CLR,,0.11,WeatherDisplay:10.37,2013-02-05 18:30:00,
2013-02-05 18:35:00,40.2,35.1,29.38,WNW,291,3.5,3.5,82,0.01,RA,,0.12,WeatherDisplay:10.37,2013-02-05 18:35:00,
2013-02-05 18:40:00,40.1,35.7,29.38,SSE,168,3.5,3.5,84,0.01,RA,,0.12,WeatherDisplay:10.37,2013-02-05 18:40:00,
2013-02-05 18:45:00,40.0,35.6,29.37,NE,43,5.8,5.8,84,0.01,CLR,,0.12,WeatherDisplay:10.37,2013-02-05 18:45:00,
2013-02-05 18:50:00,40.1,35.7,29.37,WSW,249,3.5,3.5,84,0.01,CLR,,0.12,WeatherDisplay:10.37,2013-02-05 18:50:00,
2013-02-05 18:55:00,40.3,35.5,29.37,WNW,302,3.5,3.5,83,0.01,CLR,,0.12,WeatherDisplay:10.37,2013-02-05 18:55:00,
2013-02-05 19:00:00,40.5,35.7,29.37,NNE,22,3.5,3.5,83,0.01,CLR,,0.12,WeatherDisplay:10.37,2013-02-05 19:00:00,
2013-02-05 19:05:00,40.8,36.0,29.37,NW,314,3.5,3.5,83,0.01,CLR,,0.12,WeatherDisplay:10.37,2013-02-05 19:05:00,
2013-02-05 19:10:00,41.2,36.1,29.37,North,8,2.3,2.3,82,0.01,CLR,,0.12,WeatherDisplay:10.37,2013-02-05 19:10:00,
2013-02-05 19:15:00,41.3,36.2,29.36,NNE,20,3.5,3.5,82,0.01,CLR,,0.12,WeatherDisplay:10.37,2013-02-05 19:15:00,
2013-02-05 19:20:00,41.4,36.3,29.36,West,280,5.0,5.0,82,0.01,CLR,,0.12,WeatherDisplay:10.37,2013-02-05 19:20:00,
2013-02-05 19:25:00,41.5,36.4,29.36,SE,146,2.3,2.3,82,0.01,CLR,,0.12,WeatherDisplay:10.37,2013-02-05 19:25:00,
2013-02-05 19:30:00,41.6,36.5,29.36,North,11,2.3,2.3,82,0.01,CLR,,0.12,WeatherDisplay:10.37,2013-02-05 19:30:00,
2013-02-05 19:35:00,41.7,36.6,29.36,ESE,123,3.5,3.5,82,0.00,CLR,,0.12,WeatherDisplay:10.37,2013-02-05 19:35:00,
2013-02-05 19:40:00,41.7,36.6,29.35,North,356,3.5,3.5,82,0.00,CLR,,0.12,WeatherDisplay:10.37,2013-02-05 19:40:00,
2013-02-05 19:45:00,41.6,36.5,29.36,WSW,253,3.5,3.5,82,0.00,CLR,,0.12,WeatherDisplay:10.37,2013-02-05 19:45:00,
2013-02-05 19:50:00,41.6,36.5,29.36,WSW,245,3.5,3.5,82,0.00,CLR,,0.12,WeatherDisplay:10.37,2013-02-05 19:50:00,
2013-02-05 19:55:00,41.5,36.7,29.35,NW,312,3.5,3.5,83,0.00,CLR,,0.12,WeatherDisplay:10.37,2013-02-05 19:55:00,
2013-02-05 20:00:00,41.4,36.6,29.35,ESE,107,2.0,2.0,83,0.00,CLR,,0.12,WeatherDisplay:10.37,2013-02-05 20:00:00,
2013-02-05 20:05:00,41.5,36.7,29.35,NW,312,3.5,3.5,83,0.00,CLR,,0.12,WeatherDisplay:10.37,2013-02-05 20:05:00,
2013-02-05 20:10:00,41.5,36.7,29.35,NNW,335,3.5,3.5,83,0.00,CLR,,0.12,WeatherDisplay:10.37,2013-02-05 20:10:00,
2013-02-05 20:15:00,41.5,36.7,29.35,NNW,328,2.3,2.3,83,0.00,CLR,,0.12,WeatherDisplay:10.37,2013-02-05 20:15:00,
2013-02-05 20:20:00,41.5,37.0,29.35,NNE,19,2.3,2.3,84,0.00,CLR,,0.12,WeatherDisplay:10.37,2013-02-05 20:20:00,
2013-02-05 20:25:00,41.5,37.0,29.35,NW,312,2.3,2.3,84,0.00,CLR,,0.12,WeatherDisplay:10.37,2013-02-05 20:25:00,
2013-02-05 20:30:00,41.6,37.4,29.35,East,97,1.1,0.0,85,0.00,CLR,,0.12,WeatherDisplay:10.37,2013-02-05 20:30:00,
2013-02-05 20:35:00,41.6,37.4,29.34,NE,41,3.5,3.5,85,0.00,CLR,,0.12,WeatherDisplay:10.37,2013-02-05 20:35:00,
2013-02-05 20:40:00,41.6,37.4,29.34,WSW,245,2.3,2.3,85,0.00,CLR,,0.12,WeatherDisplay:10.37,2013-02-05 20:40:00,
2013-02-05 20:45:00,41.6,37.4,29.34,WSW,245,1.1,1.1,85,0.00,CLR,,0.12,WeatherDisplay:10.37,2013-02-05 20:45:00,
2013-02-05 20:50:00,41.7,37.5,29.34,NNE,32,1.1,1.1,85,0.00,CLR,,0.12,WeatherDisplay:10.37,2013-02-05 20:50:00,
2013-02-05 20:55:00,41.9,37.7,29.34,WNW,290,2.3,2.3,85,0.00,CLR,,0.12,WeatherDisplay:10.37,2013-02-05 20:55:00,
2013-02-05 21:00:00,42.2,38.0,29.34,NW,324,3.5,3.5,85,0.00,CLR,,0.12,WeatherDisplay:10.37,2013-02-05 21:00:00,
2013-02-05 21:05:00,42.4,38.2,29.34,WNW,293,4.0,4.0,85,0.00,CLR,,0.12,WeatherDisplay:10.37,2013-02-05 21:05:00,
2013-02-05 21:10:00,42.4,38.5,29.34,WNW,293,2.3,2.3,86,0.00,CLR,,0.12,WeatherDisplay:10.37,2013-02-05 21:10:00,
2013-02-05 21:15:00,42.3,38.4,29.34,WNW,301,3.5,3.5,86,0.01,RA,,0.13,WeatherDisplay:10.37,2013-02-05 21:15:00,
2013-02-05 21:20:00,42.3,38.4,29.34,NE,43,6.0,6.0,86,0.01,RA,,0.13,WeatherDisplay:10.37,2013-02-05 21:20:00,
2013-02-05 21:25:00,42.5,38.0,29.33,NNW,342,4.6,4.6,84,0.01,,,0.13,WeatherDisplay:10.37,2013-02-05 21:25:00,
2013-02-05 21:30:00,42.7,38.2,29.34,NNW,348,6.0,6.0,84,0.01,CLR,,0.13,WeatherDisplay:10.37,2013-02-05 21:30:00,
2013-02-05 21:35:00,42.9,38.1,29.34,NNW,333,5.8,5.8,83,0.01,CLR,,0.13,WeatherDisplay:10.37,2013-02-05 21:35:00,
2013-02-05 21:40:00,42.9,38.1,29.34,WSW,255,9.2,9.2,83,0.01,CLR,,0.13,WeatherDisplay:10.37,2013-02-05 21:40:00,
2013-02-05 21:45:00,43.1,38.0,29.34,North,3,5.8,5.8,82,0.01,CLR,,0.13,WeatherDisplay:10.37,2013-02-05 21:45:00,
2013-02-05 21:50:00,43.1,38.0,29.33,West,264,10.4,10.4,82,0.01,CLR,,0.13,WeatherDisplay:10.37,2013-02-05 21:50:00,
2013-02-05 21:55:00,43.1,38.0,29.33,NNW,335,5.8,5.8,82,0.01,CLR,,0.13,WeatherDisplay:10.37,2013-02-05 21:55:00,
2013-02-05 22:00:00,43.2,38.1,29.33,NW,308,11.0,11.0,82,0.01,CLR,,0.13,WeatherDisplay:10.37,2013-02-05 22:00:00,
2013-02-05 22:05:00,43.2,38.1,29.34,ESE,106,6.9,6.9,82,0.01,CLR,,0.13,WeatherDisplay:10.37,2013-02-05 22:05:00,
2013-02-05 22:10:00,43.2,38.1,29.34,WNW,288,11.5,11.5,82,0.01,CLR,,0.13,WeatherDisplay:10.37,2013-02-05 22:10:00,
2013-02-05 22:15:00,43.2,38.1,29.33,SW,224,4.6,4.6,82,0.00,CLR,,0.13,WeatherDisplay:10.37,2013-02-05 22:15:00,
2013-02-05 22:20:00,43.2,38.1,29.34,West,267,6.9,6.9,82,0.00,CLR,,0.13,WeatherDisplay:10.37,2013-02-05 22:20:00,
2013-02-05 22:25:00,43.2,38.4,29.34,NNW,329,6.9,6.9,83,0.00,CLR,,0.13,WeatherDisplay:10.37,2013-02-05 22:25:00,
2013-02-05 22:30:00,43.1,38.6,29.34,West,273,3.5,3.5,84,0.00,CLR,,0.13,WeatherDisplay:10.37,2013-02-05 22:30:00,
2013-02-05 22:35:00,43.1,38.6,29.34,West,266,4.6,4.6,84,0.00,CLR,,0.13,WeatherDisplay:10.37,2013-02-05 22:35:00,
2013-02-05 22:40:00,43.0,38.5,29.34,NW,322,3.5,3.5,84,0.00,CLR,,0.13,WeatherDisplay:10.37,2013-02-05 22:40:00,
2013-02-05 22:45:00,43.0,38.5,29.34,WSW,242,11.5,11.5,84,0.00,CLR,,0.13,WeatherDisplay:10.37,2013-02-05 22:45:00,
2013-02-05 22:50:00,43.0,38.5,29.34,WSW,243,5.8,5.8,84,0.00,CLR,,0.13,WeatherDisplay:10.37,2013-02-05 22:50:00,
2013-02-05 22:55:00,42.9,38.4,29.34,West,266,4.6,4.6,84,0.00,CLR,,0.13,WeatherDisplay:10.37,2013-02-05 22:55:00,
2013-02-05 23:00:00,43.1,38.6,29.34,WNW,291,5.8,5.8,84,0.00,CLR,,0.13,WeatherDisplay:10.37,2013-02-05 23:00:00,
2013-02-05 23:05:00,43.1,38.6,29.35,West,270,9.2,9.2,84,0.00,CLR,,0.13,WeatherDisplay:10.37,2013-02-05 23:05:00,
2013-02-05 23:10:00,43.0,38.8,29.35,West,276,3.5,3.5,85,0.00,CLR,,0.13,WeatherDisplay:10.37,2013-02-05 23:10:00,
2013-02-05 23:15:00,42.9,38.7,29.35,WSW,250,4.6,4.6,85,0.00,CLR,,0.13,WeatherDisplay:10.37,2013-02-05 23:15:00,
2013-02-05 23:20:00,42.7,38.8,29.35,West,274,5.8,5.8,86,0.00,CLR,,0.13,WeatherDisplay:10.37,2013-02-05 23:20:00,
2013-02-05 23:25:00,42.6,39.0,29.35,West,266,4.6,4.6,87,0.00,CLR,,0.13,WeatherDisplay:10.37,2013-02-05 23:25:00,
2013-02-05 23:30:00,42.4,38.8,29.35,West,278,5.8,5.8,87,0.00,CLR,,0.13,WeatherDisplay:10.37,2013-02-05 23:30:00,
2013-02-05 23:35:00,42.3,39.0,29.36,NW,319,4.0,4.0,88,0.00,CLR,,0.13,WeatherDisplay:10.37,2013-02-05 23:35:00,
2013-02-05 23:40:00,42.2,39.2,29.36,NNW,340,2.3,2.3,89,0.00,CLR,,0.13,WeatherDisplay:10.37,2013-02-05 23:40:00,
2013-02-05 23:45:00,42.0,39.0,29.36,West,266,3.5,3.5,89,0.00,CLR,,0.13,WeatherDisplay:10.37,2013-02-05 23:45:00,
2013-02-05 23:50:00,41.9,38.9,29.36,WNW,293,5.8,5.8,89,0.00,CLR,,0.13,WeatherDisplay:10.37,2013-02-05 23:50:00,
2013-02-05 23:55:00,42.0,39.0,29.36,WNW,293,3.5,3.5,89,0.00,CLR,,0.13,WeatherDisplay:10.37,2013-02-05 23:55:00,